Location: Berkeley
(37.8716°N, 122.2727°W)
Time: 20:41:19
(UTC-07:00)

Envisat - Pass Details

Date: 11 May 2026
Orbit: 761 x 763 km, 98.4° (Epoch: 9 June)

Event Time Altitude Azimuth Distance (km) Brightness Sun altitude
Rises 04:28:17 0° 2° (N) 3,230 6.9 -16.6°
Reaches altitude 10° 04:30:46 10° 354° (N) 2,300 5.9 -16.3°
Maximum altitude 04:35:17 34° 291° (WNW) 1,230 3.8 -15.6°
Enters shadow 04:37:35 23° 245° (WSW) 1,569 4.0 -15.2°
